Precipitable_Water
0.36 0.36 0.36 0.36 0.35 0.35 0.34 0.34 0.32 0.31 0.29 0.28 0.27 0.25 0.22 0.20 0.20 0.20 0.20 0.20 0.20 0.19 0.19 0.18 0.18 0.18 0.17 0.17 0.17 0.16 0.16 0.15 0.15 0.14 0.13 0.12 0.12 0.12 0.11 0.11 0.11 0.11 0.11 0.11 0.11 0.11 0.11 0.10 0.11 0.11 0.12 0.11 0.11 0.11 0.11 0.12 0.12 0.12 0.12 0.12 0.11 0.12 0.12 0.11 0.10 0.09 0.10 0.11 0.12 0.11 0.13 0.14 0.12 0.13 0.13 0.13 0.13 0.15 0.15 0.16 0.16 0.16 0.16 0.16 0.16
0.36 0.36 0.36 0.35 0.34 0.34 0.33 0.32 0.31 0.30 0.29 0.28 0.25 0.22 0.21 0.21 0.21 0.20 0.20 0.20 0.20 0.19 0.19 0.19 0.18 0.18 0.17 0.17 0.16 0.16 0.15 0.14 0.14 0.13 0.12 0.11 0.11 0.11 0.11 0.11 0.10 0.10 0.10 0.10 0.10 0.11 0.11 0.10 0.10 0.11 0.11 0.11 0.11 0.11 0.11 0.11 0.11 0.11 0.11 0.11 0.11 0.11 0.12 0.11 0.10 0.09 0.08 0.09 0.09 0.11 0.11 0.14 0.12 0.13 0.13 0.13 0.12 0.13 0.13 0.14 0.16 0.17 0.16 0.17 0.16
0.36 0.36 0.35 0.34 0.34 0.33 0.32 0.31 0.30 0.28 0.26 0.23 0.22 0.22 0.22 0.21 0.21 0.20 0.20 0.20 0.20 0.19 0.19 0.19 0.18 0.18 0.17 0.16 0.16 0.15 0.14 0.13 0.13 0.12 0.11 0.11 0.11 0.10 0.11 0.10 0.10 0.10 0.10 0.10 0.10 0.10 0.10 0.10 0.10 0.10 0.11 0.10 0.10 0.11 0.11 0.11 0.11 0.11 0.11 0.11 0.10 0.10 0.11 0.11 0.10 0.09 0.08 0.08 0.09 0.09 0.09 0.11 0.12 0.12 0.13 0.15 0.14 0.13 0.13 0.13 0.14 0.16 0.16 0.17 0.17
0.36 0.35 0.34 0.33 0.33 0.32 0.31 0.30 0.28 0.26 0.24 0.23 0.23 0.23 0.23 0.22 0.21 0.20 0.20 0.20 0.19 0.19 0.19 0.18 0.18 0.17 0.16 0.15 0.14 0.14 0.13 0.12 0.12 0.12 0.11 0.11 0.10 0.10 0.10 0.10 0.10 0.10 0.10 0.10 0.10 0.10 0.10 0.10 0.10 0.10 0.10 0.10 0.10 0.10 0.11 0.11 0.11 0.10 0.10 0.10 0.11 0.10 0.11 0.11 0.11 0.11 0.10 0.09 0.09 0.09 0.10 0.10 0.12 0.13 0.14 0.15 0.15 0.13 0.13 0.14 0.14 0.14 0.15 0.16 0.17
0.35 0.34 0.33 0.32 0.31 0.30 0.29 0.28 0.26 0.24 0.24 0.24 0.24 0.25 0.24 0.22 0.21 0.20 0.20 0.19 0.19 0.19 0.18 0.18 0.17 0.16 0.15 0.14 0.13 0.13 0.13 0.12 0.11 0.11 0.11 0.10 0.10 0.10 0.10 0.10 0.10 0.10 0.10 0.10 0.11 0.10 0.10 0.10 0.10 0.10 0.10 0.10 0.10 0.10 0.10 0.10 0.10 0.10 0.10 0.11 0.11 0.11 0.11 0.12 0.12 0.12 0.11 0.10 0.09 0.10 0.11 0.11 0.13 0.14 0.14 0.13 0.13 0.13 0.14 0.14 0.14 0.14 0.14 0.15 0.17
0.34 0.33 0.32 0.31 0.30 0.29 0.27 0.26 0.25 0.24 0.24 0.25 0.25 0.25 0.24 0.22 0.21 0.20 0.20 0.19 0.19 0.19 0.18 0.17 0.17 0.15 0.14 0.14 0.13 0.13 0.12 0.12 0.11 0.10 0.10 0.10 0.10 0.10 0.10 0.11 0.11 0.11 0.11 0.11 0.11 0.11 0.11 0.11 0.11 0.11 0.10 0.10 0.10 0.10 0.10 0.10 0.10 0.10 0.11 0.11 0.11 0.12 0.12 0.12 0.13 0.12 0.12 0.11 0.11 0.10 0.11 0.12 0.12 0.12 0.13 0.14 0.14 0.13 0.13 0.13 0.14 0.14 0.14 0.14 0.15
0.33 0.32 0.31 0.30 0.28 0.27 0.26 0.25 0.25 0.25 0.25 0.26 0.26 0.25 0.24 0.22 0.21 0.20 0.20 0.19 0.19 0.18 0.18 0.17 0.16 0.15 0.14 0.13 0.13 0.12 0.12 0.11 0.11 0.10 0.10 0.10 0.10 0.11 0.11 0.11 0.11 0.12 0.12 0.12 0.12 0.12 0.11 0.11 0.11 0.11 0.11 0.11 0.10 0.10 0.11 0.11 0.11 0.11 0.11 0.11 0.11 0.11 0.11 0.12 0.12 0.12 0.12 0.11 0.11 0.12 0.11 0.12 0.13 0.12 0.14 0.15 0.15 0.14 0.13 0.13 0.13 0.15 0.15 0.15 0.14
0.32 0.30 0.29 0.29 0.28 0.27 0.26 0.25 0.25 0.26 0.27 0.26 0.26 0.25 0.24 0.22 0.21 0.21 0.20 0.19 0.18 0.17 0.17 0.16 0.16 0.15 0.14 0.13 0.12 0.12 0.12 0.11 0.11 0.11 0.10 0.11 0.12 0.12 0.12 0.12 0.12 0.12 0.12 0.12 0.12 0.12 0.12 0.11 0.11 0.11 0.11 0.11 0.11 0.11 0.12 0.11 0.11 0.11 0.11 0.11 0.11 0.11 0.11 0.11 0.11 0.11 0.11 0.11 0.11 0.11 0.11 0.11 0.12 0.13 0.14 0.14 0.13 0.13 0.14 0.14 0.12 0.11 0.12 0.14 0.15
0.30 0.29 0.29 0.28 0.28 0.27 0.26 0.26 0.27 0.27 0.27 0.26 0.25 0.24 0.23 0.22 0.21 0.20 0.19 0.18 0.18 0.17 0.17 0.16 0.15 0.14 0.13 0.13 0.12 0.12 0.12 0.11 0.11 0.11 0.12 0.12 0.13 0.12 0.12 0.12 0.12 0.12 0.12 0.12 0.12 0.12 0.12 0.11 0.11 0.12 0.12 0.12 0.12 0.12 0.12 0.12 0.12 0.11 0.11 0.12 0.12 0.12 0.12 0.12 0.12 0.11 0.11 0.11 0.11 0.11 0.11 0.11 0.11 0.12 0.12 0.12 0.12 0.12 0.14 0.14 0.13 0.14 0.15 0.15 0.15
0.29 0.29 0.29 0.29 0.28 0.27 0.26 0.26 0.26 0.26 0.26 0.25 0.25 0.24 0.22 0.22 0.21 0.20 0.19 0.18 0.17 0.17 0.17 0.16 0.15 0.14 0.13 0.12 0.12 0.12 0.12 0.12 0.12 0.12 0.13 0.13 0.13 0.13 0.13 0.13 0.13 0.13 0.12 0.12 0.12 0.12 0.12 0.12 0.12 0.12 0.12 0.12 0.11 0.11 0.11 0.12 0.12 0.12 0.12 0.13 0.12 0.12 0.12 0.11 0.11 0.11 0.11 0.11 0.11 0.11 0.11 0.11 0.11 0.12 0.12 0.13 0.14 0.14 0.14 0.14 0.12 0.13 0.14 0.12 0.12
0.28 0.28 0.28 0.29 0.28 0.26 0.25 0.25 0.26 0.26 0.26 0.25 0.24 0.22 0.22 0.21 0.20 0.19 0.18 0.17 0.17 0.17 0.17 0.16 0.14 0.14 0.13 0.12 0.12 0.12 0.12 0.11 0.12 0.13 0.13 0.13 0.14 0.13 0.13 0.13 0.13 0.13 0.13 0.12 0.12 0.12 0.12 0.12 0.12 0.11 0.11 0.11 0.10 0.10 0.11 0.11 0.12 0.12 0.13 0.13 0.13 0.13 0.12 0.11 0.11 0.12 0.11 0.11 0.11 0.11 0.11 0.11 0.11 0.12 0.12 0.12 0.12 0.12 0.12 0.12 0.12 0.12 0.11 0.10 0.09
0.27 0.27 0.28 0.28 0.27 0.25 0.24 0.24 0.25 0.25 0.24 0.23 0.22 0.22 0.21 0.20 0.19 0.19 0.18 0.17 0.17 0.17 0.16 0.15 0.14 0.13 0.13 0.12 0.12 0.12 0.11 0.12 0.12 0.13 0.13 0.14 0.14 0.14 0.14 0.13 0.13 0.13 0.13 0.12 0.12 0.12 0.11 0.11 0.11 0.11 0.10 0.10 0.10 0.10 0.10 0.10 0.11 0.12 0.12 0.13 0.13 0.13 0.14 0.13 0.12 0.12 0.12 0.11 0.11 0.11 0.11 0.11 0.12 0.12 0.12 0.12 0.12 0.12 0.13 0.13 0.12 0.12 0.12 0.12 0.12
0.26 0.27 0.28 0.27 0.25 0.24 0.23 0.23 0.24 0.23 0.22 0.22 0.21 0.20 0.20 0.19 0.19 0.18 0.18 0.17 0.17 0.17 0.16 0.15 0.14 0.13 0.12 0.12 0.12 0.12 0.12 0.12 0.12 0.13 0.13 0.14 0.14 0.14 0.14 0.14 0.13 0.13 0.13 0.12 0.12 0.11 0.11 0.11 0.10 0.10 0.10 0.10 0.10 0.10 0.10 0.10 0.10 0.11 0.12 0.12 0.12 0.13 0.13 0.14 0.15 0.14 0.14 0.13 0.12 0.12 0.12 0.13 0.12 0.13 0.13 0.13 0.14 0.13 0.13 0.13 0.14 0.14 0.14 0.14 0.14
0.27 0.28 0.27 0.25 0.23 0.22 0.21 0.22 0.22 0.21 0.21 0.20 0.20 0.19 0.19 0.19 0.19 0.19 0.18 0.17 0.17 0.16 0.16 0.15 0.14 0.13 0.13 0.12 0.12 0.12 0.12 0.12 0.12 0.13 0.14 0.14 0.14 0.14 0.14 0.14 0.13 0.13 0.12 0.12 0.12 0.11 0.11 0.10 0.10 0.09 0.09 0.10 0.10 0.10 0.10 0.10 0.11 0.11 0.12 0.12 0.12 0.13 0.14 0.14 0.14 0.15 0.15 0.15 0.14 0.13 0.14 0.14 0.13 0.14 0.15 0.15 0.14 0.14 0.14 0.14 0.15 0.15 0.16 0.16 0.18
0.29 0.28 0.25 0.22 0.21 0.20 0.20 0.20 0.20 0.19 0.19 0.19 0.18 0.18 0.18 0.19 0.19 0.18 0.17 0.17 0.17 0.16 0.16 0.15 0.14 0.14 0.13 0.13 0.12 0.12 0.12 0.12 0.13 0.13 0.13 0.13 0.14 0.14 0.14 0.13 0.13 0.12 0.12 0.12 0.12 0.12 0.11 0.10 0.10 0.09 0.09 0.10 0.10 0.11 0.11 0.11 0.12 0.12 0.12 0.13 0.13 0.13 0.14 0.14 0.15 0.15 0.15 0.15 0.15 0.15 0.15 0.16 0.16 0.16 0.16 0.17 0.17 0.17 0.17 0.16 0.17 0.18 0.19 0.20 0.20
0.27 0.25 0.23 0.21 0.19 0.19 0.19 0.18 0.18 0.18 0.18 0.18 0.18 0.18 0.18 0.18 0.18 0.17 0.17 0.17 0.17 0.17 0.17 0.16 0.15 0.14 0.14 0.13 0.13 0.12 0.12 0.12 0.12 0.13 0.13 0.13 0.13 0.13 0.13 0.12 0.12 0.12 0.12 0.12 0.12 0.12 0.11 0.10 0.10 0.10 0.10 0.10 0.11 0.12 0.13 0.13 0.13 0.13 0.13 0.13 0.14 0.14 0.15 0.16 0.16 0.17 0.17 0.17 0.17 0.17 0.17 0.18 0.18 0.18 0.19 0.19 0.19 0.19 0.19 0.20 0.20 0.19 0.19 0.17 0.15
0.25 0.25 0.23 0.21 0.19 0.18 0.18 0.18 0.18 0.18 0.18 0.17 0.17 0.17 0.18 0.18 0.18 0.17 0.17 0.17 0.17 0.17 0.17 0.16 0.16 0.15 0.14 0.14 0.13 0.12 0.12 0.12 0.12 0.12 0.13 0.13 0.13 0.12 0.12 0.12 0.12 0.12 0.12 0.12 0.12 0.11 0.11 0.11 0.11 0.11 0.11 0.11 0.12 0.13 0.14 0.14 0.14 0.14 0.14 0.14 0.14 0.14 0.15 0.16 0.17 0.18 0.18 0.18 0.18 0.19 0.19 0.19 0.20 0.19 0.19 0.20 0.20 0.20 0.19 0.17 0.15 0.17 0.16 0.15 0.14
0.25 0.23 0.21 0.20 0.19 0.19 0.19 0.19 0.19 0.18 0.17 0.17 0.17 0.18 0.18 0.18 0.18 0.18 0.18 0.18 0.18 0.18 0.17 0.16 0.16 0.15 0.14 0.14 0.13 0.12 0.11 0.12 0.12 0.12 0.12 0.12 0.13 0.12 0.12 0.12 0.12 0.12 0.12 0.12 0.12 0.12 0.12 0.12 0.12 0.12 0.12 0.12 0.13 0.14 0.15 0.16 0.15 0.15 0.15 0.14 0.14 0.14 0.15 0.16 0.17 0.17 0.18 0.18 0.18 0.18 0.19 0.19 0.19 0.19 0.19 0.19 0.19 0.18 0.17 0.14 0.15 0.15 0.14 0.15 0.14
0.21 0.21 0.20 0.20 0.19 0.19 0.19 0.19 0.18 0.18 0.17 0.17 0.18 0.18 0.18 0.18 0.18 0.18 0.18 0.18 0.18 0.17 0.17 0.16 0.16 0.15 0.15 0.14 0.13 0.12 0.12 0.11 0.12 0.12 0.12 0.12 0.13 0.13 0.13 0.12 0.12 0.12 0.12 0.12 0.12 0.12 0.12 0.13 0.13 0.13 0.13 0.13 0.14 0.15 0.16 0.16 0.16 0.16 0.16 0.15 0.14 0.14 0.15 0.17 0.16 0.17 0.17 0.17 0.18 0.18 0.18 0.19 0.19 0.19 0.19 0.19 0.19 0.18 0.18 0.17 0.16 0.15 0.14 0.14 0.15
0.20 0.21 0.20 0.20 0.20 0.19 0.18 0.18 0.18 0.17 0.17 0.18 0.18 0.18 0.19 0.18 0.18 0.18 0.18 0.17 0.17 0.17 0.17 0.16 0.15 0.15 0.15 0.14 0.13 0.12 0.11 0.11 0.11 0.12 0.12 0.12 0.13 0.13 0.13 0.12 0.12 0.12 0.12 0.12 0.12 0.13 0.13 0.13 0.13 0.14 0.14 0.14 0.15 0.16 0.16 0.17 0.17 0.17 0.17 0.16 0.15 0.14 0.17 0.17 0.17 0.17 0.17 0.17 0.17 0.18 0.18 0.19 0.19 0.19 0.19 0.19 0.19 0.19 0.18 0.17 0.17 0.16 0.15 0.15 0.15
0.19 0.19 0.19 0.18 0.18 0.18 0.17 0.17 0.17 0.17 0.18 0.19 0.19 0.19 0.19 0.19 0.18 0.18 0.17 0.17 0.17 0.17 0.17 0.16 0.15 0.15 0.14 0.13 0.13 0.12 0.11 0.11 0.11 0.12 0.12 0.12 0.13 0.13 0.13 0.13 0.13 0.13 0.13 0.13 0.13 0.13 0.13 0.13 0.14 0.14 0.15 0.15 0.15 0.16 0.17 0.18 0.18 0.18 0.17 0.16 0.16 0.17 0.18 0.17 0.17 0.17 0.17 0.17 0.17 0.16 0.17 0.17 0.17 0.18 0.18 0.18 0.18 0.18 0.18 0.18 0.18 0.18 0.17 0.16 0.15
0.18 0.17 0.17 0.17 0.17 0.17 0.17 0.18 0.18 0.19 0.19 0.19 0.19 0.19 0.19 0.18 0.17 0.17 0.17 0.17 0.16 0.16 0.16 0.16 0.15 0.14 0.14 0.13 0.12 0.12 0.11 0.11 0.11 0.11 0.12 0.13 0.13 0.14 0.14 0.14 0.14 0.14 0.14 0.13 0.13 0.13 0.13 0.14 0.14 0.14 0.15 0.15 0.16 0.17 0.17 0.16 0.16 0.16 0.15 0.15 0.16 0.16 0.16 0.16 0.16 0.16 0.15 0.15 0.14 0.14 0.14 0.15 0.15 0.16 0.16 0.16 0.17 0.17 0.16 0.17 0.17 0.18 0.18 0.18 0.17
0.17 0.16 0.16 0.16 0.17 0.17 0.18 0.19 0.19 0.19 0.19 0.19 0.19 0.18 0.18 0.17 0.17 0.17 0.17 0.17 0.16 0.16 0.17 0.16 0.15 0.14 0.13 0.12 0.12 0.11 0.11 0.11 0.11 0.12 0.12 0.13 0.14 0.14 0.15 0.15 0.16 0.16 0.14 0.13 0.14 0.14 0.14 0.14 0.15 0.15 0.15 0.15 0.15 0.15 0.15 0.15 0.15 0.14 0.14 0.15 0.15 0.15 0.15 0.15 0.14 0.14 0.13 0.13 0.13 0.13 0.13 0.14 0.14 0.14 0.15 0.15 0.16 0.16 0.17 0.17 0.17 0.17 0.18 0.18 0.17
0.16 0.16 0.16 0.17 0.17 0.18 0.19 0.19 0.20 0.20 0.20 0.19 0.18 0.17 0.17 0.17 0.16 0.17 0.17 0.16 0.16 0.16 0.17 0.16 0.15 0.14 0.13 0.12 0.12 0.11 0.11 0.11 0.12 0.12 0.13 0.13 0.14 0.15 0.15 0.16 0.16 0.16 0.16 0.15 0.15 0.15 0.15 0.15 0.15 0.15 0.15 0.14 0.14 0.14 0.14 0.13 0.13 0.13 0.14 0.14 0.14 0.14 0.13 0.13 0.12 0.12 0.12 0.12 0.12 0.12 0.13 0.14 0.14 0.14 0.15 0.15 0.16 0.16 0.17 0.17 0.17 0.17 0.17 0.17 0.17
0.16 0.16 0.17 0.17 0.18 0.19 0.19 0.19 0.20 0.19 0.19 0.18 0.17 0.16 0.16 0.16 0.16 0.16 0.16 0.16 0.16 0.16 0.16 0.16 0.14 0.13 0.13 0.12 0.11 0.11 0.11 0.11 0.12 0.12 0.13 0.13 0.14 0.14 0.15 0.16 0.16 0.17 0.16 0.16 0.16 0.16 0.15 0.15 0.15 0.14 0.13 0.13 0.13 0.12 0.12 0.12 0.13 0.13 0.13 0.13 0.13 0.12 0.12 0.12 0.12 0.12 0.12 0.12 0.12 0.12 0.13 0.13 0.14 0.15 0.16 0.16 0.16 0.17 0.17 0.17 0.17 0.18 0.18 0.18 0.17
0.16 0.17 0.17 0.17 0.18 0.18 0.19 0.19 0.19 0.19 0.18 0.17 0.16 0.16 0.16 0.15 0.16 0.16 0.16 0.16 0.16 0.16 0.15 0.15 0.14 0.13 0.13 0.12 0.11 0.11 0.12 0.12 0.12 0.13 0.13 0.13 0.14 0.15 0.15 0.16 0.16 0.17 0.17 0.17 0.16 0.15 0.15 0.14 0.13 0.12 0.12 0.12 0.12 0.12 0.12 0.12 0.12 0.12 0.12 0.12 0.12 0.11 0.11 0.11 0.11 0.11 0.11 0.11 0.12 0.12 0.13 0.13 0.14 0.15 0.15 0.16 0.15 0.16 0.16 0.16 0.16 0.16 0.17 0.16 0.16
0.17 0.17 0.17 0.17 0.18 0.18 0.18 0.19 0.19 0.18 0.18 0.17 0.16 0.16 0.16 0.16 0.16 0.16 0.16 0.16 0.16 0.15 0.15 0.14 0.14 0.13 0.12 0.12 0.12 0.12 0.12 0.12 0.13 0.13 0.13 0.14 0.14 0.15 0.15 0.16 0.17 0.17 0.16 0.15 0.15 0.14 0.13 0.13 0.12 0.12 0.11 0.12 0.12 0.12 0.12 0.12 0.11 0.11 0.11 0.11 0.11 0.11 0.11 0.11 0.11 0.11 0.11 0.11 0.11 0.12 0.13 0.13 0.14 0.15 0.15 0.15 0.15 0.16 0.17 0.16 0.16 0.16 0.16 0.16 0.15
0.17 0.18 0.18 0.18 0.18 0.18 0.19 0.19 0.19 0.18 0.18 0.17 0.17 0.16 0.16 0.16 0.16 0.16 0.16 0.16 0.15 0.15 0.15 0.14 0.13 0.13 0.12 0.12 0.12 0.12 0.12 0.12 0.13 0.13 0.13 0.14 0.15 0.16 0.16 0.16 0.17 0.16 0.15 0.15 0.14 0.13 0.12 0.12 0.11 0.11 0.11 0.11 0.11 0.11 0.11 0.11 0.11 0.11 0.11 0.11 0.11 0.11 0.11 0.12 0.12 0.12 0.11 0.12 0.12 0.12 0.13 0.13 0.13 0.13 0.14 0.14 0.15 0.15 0.16 0.16 0.16 0.15 0.16 0.16 0.15
0.19 0.19 0.19 0.18 0.18 0.19 0.19 0.19 0.19 0.19 0.19 0.18 0.17 0.17 0.17 0.17 0.17 0.16 0.17 0.17 0.16 0.15 0.14 0.14 0.14 0.13 0.13 0.12 0.12 0.12 0.12 0.12 0.13 0.15 0.15 0.16 0.16 0.16 0.16 0.16 0.16 0.16 0.15 0.15 0.13 0.12 0.11 0.11 0.10 0.10 0.10 0.10 0.11 0.11 0.10 0.10 0.10 0.11 0.11 0.11 0.11 0.11 0.11 0.11 0.11 0.11 0.11 0.11 0.11 0.12 0.12 0.12 0.13 0.13 0.14 0.14 0.14 0.15 0.16 0.15 0.16 0.15 0.16 0.16 0.14
0.19 0.19 0.19 0.19 0.19 0.19 0.19 0.19 0.20 0.20 0.19 0.19 0.18 0.17 0.18 0.18 0.17 0.17 0.17 0.17 0.17 0.16 0.16 0.15 0.14 0.14 0.13 0.13 0.13 0.13 0.12 0.13 0.15 0.16 0.17 0.17 0.17 0.17 0.17 0.17 0.17 0.16 0.15 0.14 0.13 0.11 0.10 0.10 0.10 0.10 0.10 0.11 0.10 0.10 0.10 0.10 0.10 0.10 0.10 0.11 0.11 0.11 0.11 0.11 0.11 0.11 0.11 0.11 0.12 0.12 0.12 0.12 0.12 0.13 0.13 0.13 0.14 0.15 0.15 0.16 0.15 0.15 0.14 0.14 0.14
0.19 0.20 0.20 0.20 0.20 0.19 0.19 0.20 0.20 0.20 0.20 0.19 0.18 0.17 0.17 0.18 0.19 0.19 0.18 0.17 0.17 0.17 0.17 0.17 0.16 0.16 0.15 0.14 0.15 0.16 0.16 0.16 0.16 0.17 0.16 0.16 0.17 0.17 0.17 0.16 0.16 0.15 0.14 0.13 0.11 0.10 0.10 0.10 0.10 0.10 0.11 0.11 0.10 0.10 0.10 0.10 0.10 0.10 0.10 0.11 0.11 0.11 0.11 0.11 0.11 0.11 0.11 0.11 0.12 0.12 0.12 0.12 0.12 0.13 0.13 0.13 0.14 0.14 0.14 0.15 0.15 0.15 0.14 0.14 0.14
0.20 0.20 0.20 0.21 0.21 0.20 0.20 0.20 0.20 0.20 0.20 0.20 0.19 0.18 0.18 0.18 0.18 0.19 0.19 0.19 0.18 0.18 0.17 0.17 0.17 0.16 0.17 0.16 0.16 0.15 0.15 0.16 0.16 0.16 0.16 0.16 0.16 0.16 0.16 0.16 0.15 0.14 0.13 0.12 0.10 0.10 0.10 0.10 0.10 0.11 0.11 0.11 0.10 0.10 0.10 0.10 0.10 0.10 0.10 0.10 0.10 0.11 0.11 0.11 0.11 0.11 0.11 0.12 0.12 0.12 0.12 0.12 0.13 0.13 0.13 0.13 0.13 0.13 0.13 0.13 0.14 0.14 0.14 0.14 0.14
0.20 0.20 0.21 0.21 0.21 0.21 0.20 0.20 0.20 0.21 0.21 0.20 0.20 0.19 0.19 0.18 0.18 0.18 0.18 0.19 0.18 0.17 0.17 0.16 0.16 0.16 0.16 0.16 0.16 0.16 0.16 0.16 0.16 0.16 0.16 0.16 0.16 0.16 0.16 0.15 0.14 0.13 0.12 0.10 0.10 0.10 0.10 0.10 0.11 0.11 0.11 0.10 0.10 0.10 0.10 0.10 0.10 0.10 0.10 0.10 0.10 0.11 0.11 0.11 0.12 0.12 0.12 0.12 0.12 0.12 0.12 0.12 0.13 0.13 0.13 0.13 0.13 0.13 0.13 0.13 0.13 0.14 0.14 0.14 0.14
0.21 0.21 0.21 0.21 0.21 0.21 0.21 0.21 0.21 0.21 0.21 0.21 0.21 0.20 0.20 0.19 0.18 0.18 0.17 0.16 0.16 0.16 0.16 0.16 0.16 0.16 0.16 0.16 0.16 0.16 0.16 0.16 0.16 0.16 0.16 0.16 0.16 0.16 0.15 0.13 0.13 0.12 0.11 0.10 0.10 0.10 0.10 0.10 0.11 0.11 0.10 0.10 0.10 0.10 0.10 0.10 0.10 0.10 0.10 0.10 0.10 0.11 0.11 0.12 0.12 0.11 0.11 0.12 0.12 0.12 0.12 0.13 0.13 0.13 0.13 0.13 0.13 0.13 0.13 0.13 0.13 0.13 0.13 0.14 0.14
0.22 0.22 0.22 0.22 0.21 0.21 0.21 0.21 0.21 0.21 0.21 0.21 0.21 0.21 0.20 0.20 0.19 0.18 0.17 0.16 0.15 0.14 0.14 0.14 0.14 0.15 0.14 0.15 0.15 0.15 0.15 0.16 0.16 0.16 0.16 0.16 0.16 0.15 0.14 0.12 0.10 0.10 0.10 0.10 0.10 0.10 0.10 0.10 0.11 0.10 0.10 0.10 0.10 0.10 0.09 0.09 0.09 0.09 0.09 0.09 0.10 0.10 0.10 0.11 0.11 0.12 0.12 0.12 0.12 0.12 0.12 0.13 0.13 0.13 0.13 0.13 0.12 0.12 0.12 0.12 0.13 0.13 0.13 0.14 0.14
0.22 0.22 0.22 0.22 0.22 0.21 0.21 0.21 0.21 0.21 0.21 0.21 0.21 0.21 0.21 0.20 0.19 0.19 0.18 0.16 0.15 0.15 0.14 0.14 0.14 0.14 0.15 0.15 0.15 0.16 0.16 0.16 0.16 0.16 0.16 0.16 0.15 0.14 0.12 0.10 0.09 0.09 0.09 0.09 0.09 0.10 0.10 0.11 0.11 0.10 0.10 0.10 0.10 0.09 0.09 0.09 0.09 0.09 0.09 0.09 0.09 0.10 0.10 0.10 0.11 0.11 0.12 0.12 0.12 0.12 0.12 0.13 0.13 0.13 0.13 0.13 0.13 0.13 0.12 0.13 0.13 0.13 0.14 0.14 0.14
0.23 0.23 0.23 0.22 0.22 0.22 0.21 0.21 0.21 0.21 0.21 0.21 0.21 0.21 0.20 0.20 0.19 0.19 0.18 0.16 0.15 0.15 0.14 0.14 0.14 0.14 0.15 0.15 0.15 0.15 0.15 0.15 0.15 0.15 0.16 0.15 0.14 0.13 0.11 0.10 0.09 0.09 0.09 0.09 0.09 0.10 0.10 0.11 0.10 0.10 0.10 0.09 0.09 0.09 0.09 0.09 0.09 0.09 0.09 0.09 0.09 0.10 0.10 0.10 0.11 0.11 0.11 0.12 0.12 0.12 0.12 0.12 0.13 0.13 0.13 0.13 0.13 0.13 0.13 0.13 0.13 0.13 0.14 0.14 0.14
0.23 0.23 0.23 0.23 0.22 0.22 0.21 0.21 0.21 0.21 0.21 0.21 0.21 0.21 0.20 0.20 0.19 0.18 0.17 0.16 0.15 0.14 0.14 0.14 0.14 0.14 0.14 0.14 0.15 0.14 0.14 0.14 0.15 0.15 0.15 0.14 0.13 0.12 0.11 0.10 0.09 0.09 0.09 0.09 0.10 0.10 0.10 0.11 0.10 0.10 0.09 0.09 0.09 0.09 0.09 0.09 0.09 0.09 0.09 0.09 0.09 0.09 0.10 0.10 0.10 0.11 0.11 0.11 0.12 0.12 0.12 0.13 0.13 0.13 0.13 0.13 0.13 0.13 0.13 0.13 0.13 0.13 0.13 0.14 0.14
0.23 0.23 0.23 0.22 0.22 0.21 0.21 0.21 0.21 0.21 0.21 0.21 0.20 0.20 0.19 0.19 0.18 0.18 0.17 0.16 0.15 0.14 0.14 0.14 0.14 0.14 0.14 0.14 0.14 0.14 0.14 0.13 0.13 0.13 0.13 0.13 0.12 0.12 0.11 0.09 0.09 0.09 0.09 0.09 0.10 0.10 0.11 0.10 0.10 0.10 0.09 0.09 0.09 0.09 0.09 0.09 0.09 0.09 0.09 0.09 0.09 0.09 0.10 0.10 0.10 0.11 0.11 0.11 0.11 0.12 0.13 0.13 0.13 0.13 0.13 0.13 0.13 0.13 0.13 0.13 0.13 0.13 0.13 0.13 0.14
0.23 0.23 0.22 0.22 0.22 0.22 0.21 0.21 0.21 0.21 0.20 0.20 0.19 0.19 0.19 0.18 0.18 0.17 0.16 0.15 0.14 0.14 0.14 0.14 0.14 0.14 0.14 0.14 0.14 0.14 0.13 0.13 0.13 0.13 0.13 0.12 0.12 0.11 0.10 0.09 0.09 0.09 0.09 0.09 0.10 0.11 0.11 0.10 0.10 0.10 0.09 0.09 0.09 0.09 0.09 0.09 0.09 0.09 0.09 0.09 0.09 0.09 0.09 0.10 0.10 0.10 0.11 0.11 0.11 0.12 0.12 0.13 0.13 0.13 0.13 0.13 0.13 0.13 0.13 0.13 0.13 0.13 0.13 0.14 0.14
0.22 0.22 0.22 0.22 0.21 0.21 0.21 0.21 0.20 0.20 0.20 0.19 0.19 0.18 0.18 0.17 0.17 0.16 0.15 0.14 0.14 0.14 0.14 0.14 0.14 0.14 0.14 0.14 0.14 0.14 0.13 0.13 0.13 0.13 0.13 0.12 0.12 0.11 0.10 0.09 0.09 0.09 0.09 0.10 0.10 0.11 0.11 0.10 0.10 0.10 0.09 0.09 0.09 0.09 0.09 0.09 0.09 0.09 0.09 0.09 0.09 0.09 0.09 0.10 0.10 0.10 0.11 0.11 0.11 0.11 0.12 0.13 0.13 0.13 0.13 0.13 0.14 0.13 0.13 0.13 0.13 0.13 0.14 0.14 0.14
0.22 0.21 0.21 0.21 0.21 0.21 0.21 0.20 0.20 0.19 0.19 0.18 0.18 0.17 0.16 0.16 0.15 0.14 0.14 0.14 0.14 0.13 0.13 0.13 0.13 0.13 0.14 0.14 0.14 0.14 0.14 0.14 0.13 0.13 0.12 0.12 0.11 0.11 0.10 0.09 0.09 0.09 0.10 0.10 0.11 0.11 0.10 0.10 0.10 0.09 0.09 0.09 0.09 0.09 0.09 0.09 0.09 0.09 0.09 0.09 0.09 0.09 0.09 0.09 0.10 0.10 0.10 0.11 0.11 0.11 0.12 0.13 0.13 0.13 0.13 0.13 0.13 0.13 0.13 0.13 0.13 0.13 0.14 0.14 0.14
0.21 0.21 0.21 0.20 0.20 0.20 0.20 0.19 0.19 0.18 0.17 0.17 0.16 0.15 0.15 0.15 0.14 0.14 0.14 0.13 0.13 0.13 0.13 0.13 0.13 0.13 0.13 0.14 0.14 0.14 0.14 0.13 0.13 0.12 0.12 0.12 0.11 0.10 0.09 0.09 0.09 0.10 0.10 0.10 0.11 0.11 0.10 0.10 0.09 0.09 0.09 0.09 0.09 0.09 0.09 0.09 0.09 0.09 0.09 0.09 0.09 0.09 0.09 0.09 0.09 0.10 0.10 0.10 0.11 0.11 0.12 0.12 0.13 0.13 0.13 0.13 0.13 0.13 0.13 0.13 0.13 0.13 0.13 0.14 0.14
0.20 0.20 0.20 0.19 0.19 0.18 0.18 0.17 0.16 0.15 0.15 0.15 0.14 0.14 0.14 0.14 0.14 0.13 0.13 0.13 0.13 0.13 0.12 0.12 0.12 0.13 0.13 0.13 0.13 0.13 0.13 0.12 0.12 0.12 0.11 0.11 0.10 0.10 0.09 0.09 0.09 0.10 0.10 0.11 0.11 0.11 0.10 0.09 0.09 0.09 0.09 0.09 0.09 0.09 0.09 0.09 0.09 0.09 0.09 0.09 0.09 0.09 0.09 0.09 0.09 0.09 0.10 0.10 0.10 0.11 0.11 0.12 0.13 0.13 0.13 0.13 0.13 0.13 0.13 0.13 0.13 0.13 0.13 0.13 0.14
0.19 0.18 0.17 0.16 0.15 0.15 0.15 0.14 0.14 0.14 0.14 0.14 0.14 0.13 0.13 0.13 0.13 0.12 0.12 0.12 0.12 0.12 0.11 0.11 0.12 0.12 0.12 0.12 0.12 0.12 0.12 0.12 0.11 0.11 0.11 0.10 0.10 0.09 0.09 0.09 0.09 0.10 0.10 0.11 0.11 0.10 0.09 0.09 0.09 0.09 0.09 0.09 0.09 0.09 0.09 0.09 0.09 0.09 0.09 0.09 0.08 0.08 0.08 0.08 0.09 0.09 0.10 0.09 0.10 0.10 0.11 0.11 0.12 0.12 0.13 0.13 0.13 0.13 0.13 0.13 0.13 0.13 0.13 0.13 0.13
0.15 0.15 0.14 0.14 0.14 0.14 0.14 0.13 0.13 0.13 0.13 0.12 0.12 0.11 0.11 0.11 0.10 0.10 0.10 0.10 0.10 0.10 0.10 0.10 0.10 0.10 0.10 0.11 0.11 0.11 0.11 0.11 0.11 0.10 0.10 0.10 0.09 0.09 0.09 0.09 0.09 0.10 0.10 0.11 0.10 0.09 0.09 0.09 0.09 0.09 0.09 0.09 0.09 0.09 0.09 0.09 0.09 0.09 0.08 0.08 0.08 0.08 0.08 0.08 0.09 0.09 0.09 0.09 0.09 0.09 0.10 0.11 0.12 0.12 0.13 0.13 0.13 0.13 0.13 0.13 0.13 0.13 0.13 0.13 0.13
0.14 0.14 0.13 0.13 0.13 0.13 0.12 0.12 0.11 0.11 0.10 0.10 0.09 0.09 0.08 0.08 0.08 0.08 0.08 0.08 0.08 0.08 0.08 0.08 0.09 0.09 0.09 0.10 0.10 0.10 0.10 0.10 0.10 0.10 0.10 0.09 0.09 0.09 0.09 0.09 0.09 0.10 0.10 0.10 0.10 0.09 0.09 0.09 0.08 0.08 0.08 0.08 0.08 0.08 0.08 0.08 0.08 0.08 0.08 0.07 0.07 0.08 0.08 0.08 0.08 0.08 0.08 0.09 0.10 0.09 0.10 0.10 0.11 0.11 0.12 0.13 0.13 0.13 0.13 0.13 0.13 0.13 0.13 0.13 0.13
0.13 0.13 0.12 0.12 0.11 0.11 0.10 0.09 0.09 0.08 0.08 0.08 0.08 0.08 0.07 0.07 0.07 0.07 0.07 0.07 0.07 0.07 0.07 0.07 0.07 0.08 0.08 0.08 0.09 0.09 0.09 0.09 0.09 0.09 0.09 0.09 0.09 0.09 0.09 0.09 0.09 0.10 0.10 0.09 0.09 0.08 0.08 0.08 0.07 0.07 0.07 0.07 0.07 0.07 0.07 0.07 0.07 0.07 0.07 0.07 0.07 0.07 0.07 0.07 0.07 0.07 0.08 0.09 0.09 0.10 0.10 0.10 0.10 0.11 0.11 0.12 0.12 0.13 0.12 0.12 0.12 0.13 0.13 0.13 0.13
0.12 0.11 0.11 0.10 0.09 0.09 0.08 0.08 0.08 0.08 0.07 0.07 0.07 0.07 0.07 0.07 0.07 0.07 0.07 0.07 0.07 0.07 0.07 0.07 0.07 0.07 0.08 0.08 0.08 0.09 0.09 0.09 0.09 0.09 0.09 0.09 0.09 0.09 0.09 0.09 0.09 0.09 0.09 0.08 0.07 0.07 0.07 0.07 0.07 0.07 0.07 0.07 0.07 0.07 0.07 0.06 0.07 0.07 0.07 0.07 0.07 0.07 0.07 0.07 0.07 0.07 0.08 0.09 0.09 0.10 0.10 0.10 0.10 0.10 0.10 0.11 0.12 0.12 0.12 0.12 0.12 0.12 0.12 0.13 0.13
0.10 0.10 0.09 0.09 0.08 0.08 0.08 0.08 0.07 0.07 0.07 0.07 0.07 0.07 0.07 0.07 0.07 0.07 0.07 0.07 0.07 0.07 0.07 0.07 0.07 0.07 0.07 0.08 0.08 0.08 0.08 0.08 0.08 0.08 0.08 0.08 0.08 0.08 0.08 0.09 0.09 0.09 0.08 0.07 0.07 0.07 0.07 0.07 0.07 0.06 0.06 0.06 0.06 0.06 0.06 0.06 0.06 0.06 0.07 0.07 0.07 0.07 0.07 0.07 0.07 0.08 0.08 0.09 0.09 0.10 0.10 0.09 0.09 0.09 0.10 0.10 0.10 0.11 0.11 0.12 0.12 0.12 0.12 0.12 0.12
0.09 0.09 0.08 0.08 0.08 0.08 0.07 0.07 0.07 0.07 0.07 0.07 0.07 0.06 0.07 0.07 0.07 0.07 0.07 0.07 0.07 0.07 0.07 0.07 0.07 0.07 0.07 0.08 0.08 0.08 0.08 0.08 0.09 0.09 0.09 0.08 0.08 0.09 0.09 0.09 0.09 0.08 0.07 0.06 0.07 0.07 0.06 0.06 0.06 0.06 0.06 0.06 0.06 0.06 0.06 0.06 0.06 0.06 0.07 0.07 0.07 0.07 0.07 0.07 0.07 0.08 0.08 0.09 0.09 0.10 0.09 0.09 0.09 0.09 0.09 0.09 0.10 0.10 0.10 0.11 0.11 0.12 0.12 0.12 0.12
Wind_Speed
34 35 35 35 36 36 37 38 38 39 40 40 41 41 41 41 41 41 42 42 42 42 43 43 43 43 43 43 44 44 44 45 45 45 45 46 46 46 47 47 47 48 48 49 49 50 50 51 51 51 51 52 52 52 53 53 54 54 55 56 57 57 59 60 62 65 65 63 64 65 65 65 66 66 65 65 65 65 65 66 66 67 67 67 67
36 36 36 36 37 37 38 39 39 40 40 41 41 41 41 41 41 42 42 42 43 43 43 43 43 43 44 44 44 44 45 45 45 46 46 46 46 46 47 47 47 48 48 48 49 49 49 50 50 50 50 51 51 52 52 53 53 54 54 55 56 57 57 59 61 63 65 64 63 64 65 65 66 66 65 65 65 65 65 66 66 67 67 68 68
36 37 37 38 38 39 39 40 40 41 41 41 41 41 41 42 42 42 42 43 43 43 43 43 43 44 44 44 45 45 45 45 46 46 46 46 46 46 46 46 47 47 47 48 48 48 48 49 49 49 49 50 51 51 51 52 52 53 54 55 56 56 57 58 59 61 63 63 62 62 63 64 65 66 66 66 66 66 66 66 66 66 67 67 68
37 38 38 39 40 40 40 41 41 41 41 42 42 42 42 42 43 43 43 43 43 43 43 44 44 44 45 45 45 45 46 45 45 45 45 45 45 45 46 46 46 47 47 47 48 48 48 48 48 49 49 50 50 51 51 52 53 54 54 55 56 57 57 57 58 59 61 62 62 61 61 62 63 63 64 65 65 65 66 66 66 66 66 67 67
38 39 40 40 41 41 41 41 41 42 42 42 42 42 43 43 43 43 43 43 43 43 44 44 44 45 45 45 45 45 45 45 45 45 45 45 45 45 46 46 46 47 47 47 48 48 48 48 49 49 50 50 51 51 52 53 53 54 55 55 56 57 57 58 58 59 60 61 62 61 61 61 61 61 61 62 62 63 63 64 64 65 65 66 66
40 40 41 41 42 42 42 42 42 43 43 43 43 43 43 43 43 43 43 43 43 44 44 44 45 45 45 45 45 45 45 45 45 45 45 45 46 46 46 47 47 47 48 48 48 48 48 49 49 49 50 51 51 52 53 53 54 55 55 56 56 57 57 58 58 58 59 60 60 60 60 60 60 60 59 59 60 60 61 61 61 61 62 63 64
41 42 42 42 42 42 43 43 43 44 44 43 43 43 43 43 43 43 43 44 44 44 44 45 45 45 45 45 45 45 45 45 45 45 46 46 46 47 47 47 48 48 48 48 48 49 49 49 50 50 51 51 52 52 53 54 55 55 56 56 56 57 57 57 57 57 57 58 58 58 58 58 57 57 57 57 57 58 58 58 58 58 59 60 61
42 43 43 43 43 43 44 44 44 44 44 43 43 43 43 43 43 43 44 44 44 44 45 45 45 45 45 45 45 45 45 45 46 46 46 47 47 47 48 48 48 48 48 48 49 49 49 49 50 50 50 51 52 52 53 54 54 55 55 55 55 55 55 55 55 55 55 55 56 55 55 55 55 55 55 55 55 55 55 57 58 58 58 58 58
43 43 44 44 44 44 44 44 44 44 43 43 43 43 43 43 44 44 44 44 44 45 45 45 45 45 45 45 45 45 46 46 46 46 47 47 47 48 48 48 48 48 48 47 47 48 48 48 48 49 50 51 51 52 52 53 53 53 53 53 53 53 53 53 53 53 53 53 53 52 52 52 52 52 52 52 52 53 54 55 56 57 57 57 57
44 44 45 45 44 44 44 44 44 44 43 43 43 43 44 44 44 44 44 44 44 45 45 45 45 45 45 45 45 46 46 46 47 47 47 47 47 47 46 46 46 46 46 46 46 46 46 47 47 48 49 50 50 51 51 52 52 52 52 52 52 51 51 51 51 51 50 50 50 49 50 50 49 49 50 50 50 51 52 53 54 54 55 56 57
45 45 45 45 45 44 44 44 43 43 43 43 44 44 44 44 44 44 44 44 44 45 45 45 45 45 45 45 46 46 46 46 46 46 46 46 45 45 45 45 45 44 44 44 45 45 46 46 47 47 48 48 49 49 50 51 51 51 51 51 50 50 49 50 49 49 49 49 49 48 48 48 48 48 48 48 48 48 49 49 50 51 51 52 53
45 45 45 45 44 44 44 44 44 44 44 44 44 44 44 44 44 44 44 44 45 45 45 45 45 46 46 46 45 45 45 45 44 44 44 44 44 44 44 44 44 44 44 44 45 45 45 46 46 47 47 47 48 49 49 49 49 49 49 48 48 48 47 48 48 48 48 48 48 47 47 47 47 46 46 46 45 45 46 47 47 48 48 49 50
45 45 44 44 45 44 44 44 44 44 44 44 44 44 44 44 44 44 44 45 45 45 45 45 45 45 45 44 44 44 43 43 43 43 43 43 43 43 43 43 43 43 44 44 44 45 45 45 46 46 46 46 47 47 48 48 48 47 47 46 45 45 46 46 47 47 47 47 47 47 46 46 46 45 45 45 45 45 45 46 46 47 47 48 48
44 44 44 44 45 44 44 44 44 45 44 44 44 44 44 44 44 44 44 45 45 45 45 45 44 44 43 43 43 43 43 43 43 43 43 43 43 43 43 43 43 43 44 44 44 44 44 45 45 45 45 45 46 47 47 47 46 46 45 44 44 44 44 45 46 46 46 46 46 46 45 45 45 45 45 45 45 45 46 46 46 47 47 48 48
43 44 44 44 44 44 44 44 45 44 44 44 44 44 44 44 44 44 44 44 44 44 44 43 43 43 42 42 42 42 42 42 42 42 42 42 42 42 42 42 42 43 43 43 43 43 44 44 44 44 44 45 46 47 46 46 45 44 44 44 44 44 44 43 44 44 44 44 45 45 45 45 45 45 45 45 45 45 46 46 46 46 46 46 46
43 43 44 44 44 44 44 44 44 44 43 43 44 44 44 44 44 44 44 43 43 42 42 42 42 42 42 42 42 42 42 42 42 41 41 41 41 41 41 42 42 42 42 42 43 43 43 43 43 44 44 45 46 46 46 45 44 44 44 44 44 43 43 43 43 43 44 44 44 45 45 45 45 45 45 45 45 45 45 45 44 44 44 44 43
43 43 43 44 43 43 44 43 43 43 43 43 43 43 43 43 43 42 42 42 41 41 41 41 41 41 41 41 41 41 41 41 41 40 40 41 41 41 41 41 41 42 42 42 42 42 42 43 43 44 44 45 45 46 46 45 44 44 44 44 43 42 42 42 42 43 43 44 44 45 45 45 45 46 46 45 45 44 43 43 43 42 43 42 41
42 43 43 43 43 43 43 43 42 42 42 43 42 42 42 42 41 41 40 40 40 40 40 41 41 41 41 41 41 40 40 40 40 40 40 40 40 40 40 41 41 41 41 41 42 42 42 43 44 44 44 44 45 45 45 45 44 43 43 43 43 42 42 41 41 42 42 43 42 43 43 44 44 44 44 43 43 42 42 43 42 42 42 41 41
42 42 42 42 41 42 42 41 42 42 42 42 41 41 40 40 40 39 39 39 39 40 40 40 41 41 40 40 39 39 39 39 39 39 39 40 40 40 40 40 40 41 41 41 42 42 43 43 44 44 44 45 45 45 44 44 44 43 44 44 43 42 41 41 41 40 41 40 40 40 40 40 41 41 40 41 41 41 41 42 41 41 41 41 40
41 40 40 40 40 40 40 40 41 41 41 40 40 39 39 39 39 38 38 39 39 39 40 40 40 40 39 38 38 38 38 38 38 39 39 39 39 39 40 40 40 40 41 41 42 42 43 43 43 44 44 45 45 45 45 44 44 44 43 43 42 41 41 40 40 40 40 39 38 38 38 38 38 38 37 38 39 40 40 40 39 38 39 39 39
39 39 39 39 39 39 39 40 40 39 39 39 38 38 38 38 38 38 38 38 38 38 39 38 38 38 38 37 37 37 37 37 37 38 39 39 39 39 39 40 40 41 41 42 42 42 43 43 43 44 45 45 45 45 45 45 44 43 42 42 42 42 41 41 40 40 38 38 37 37 37 36 36 36 36 37 37 38 38 38 37 37 37 38 38
38 38 38 38 38 38 38 38 37 37 38 38 38 38 37 37 37 37 37 37 37 37 37 37 37 37 36 36 36 36 36 37 37 38 38 39 39 39 39 40 40 41 42 42 43 43 43 43 43 44 45 45 46 46 45 44 43 42 41 42 42 42 41 40 38 38 38 37 37 37 37 36 36 36 36 36 36 36 36 36 37 37 37 37 38
37 37 37 37 37 36 36 36 36 37 37 37 37 37 37 37 37 37 37 37 37 37 36 36 36 36 35 35 35 35 36 36 37 38 38 38 39 39 40 41 41 41 42 43 43 43 43 43 44 45 46 46 46 45 44 43 42 41 40 40 40 40 39 38 37 37 37 37 37 36 36 35 35 35 35 35 35 35 36 36 36 37 38 38 39
36 36 36 36 35 35 35 35 36 36 36 36 36 36 36 36 36 36 36 36 36 36 36 35 35 35 35 35 35 35 35 36 37 37 38 38 39 40 40 41 41 42 43 43 43 43 44 44 45 46 46 46 45 44 42 41 40 39 39 39 38 37 36 36 35 35 35 35 35 35 35 34 34 34 34 34 35 36 36 37 37 38 38 38 39
35 35 35 35 35 35 35 35 35 35 36 36 36 36 36 36 36 36 36 36 36 36 35 35 36 35 35 35 35 35 35 35 36 37 38 38 39 40 41 41 42 42 42 43 43 44 44 45 45 46 45 45 43 42 40 39 38 38 37 37 36 35 34 34 34 34 34 34 34 34 34 34 34 34 35 35 36 36 37 37 37 37 38 38 39
35 35 35 35 35 35 35 35 35 35 35 36 36 36 36 36 36 36 36 36 36 36 36 36 36 36 36 36 36 36 35 36 36 37 37 38 38 40 41 41 42 43 43 43 44 44 44 45 45 44 44 43 41 39 37 36 36 36 35 34 34 33 33 33 33 33 33 33 33 33 34 34 34 34 35 35 35 35 35 36 36 36 37 37 38
35 35 36 36 35 35 35 35 35 35 35 36 36 36 36 36 36 36 36 36 36 36 36 36 36 36 36 36 36 36 36 36 37 37 38 38 39 40 41 41 42 42 43 43 44 44 43 44 44 43 41 40 38 36 35 34 34 33 33 32 32 31 31 32 32 32 32 32 32 32 33 33 33 33 34 34 34 34 34 35 36 36 36 37 38
37 37 37 37 37 36 36 36 36 36 36 36 36 36 36 36 36 37 37 37 36 37 37 37 37 37 37 37 37 37 37 37 38 38 38 39 40 40 41 42 42 42 42 43 43 42 42 42 41 40 39 37 35 34 33 32 32 31 31 31 30 30 30 31 31 31 31 32 32 32 32 32 33 33 33 33 33 33 33 33 34 35 36 37 38
38 38 38 38 38 37 37 37 37 37 37 37 37 37 37 37 37 37 37 37 37 37 37 37 37 37 37 37 37 37 38 38 38 39 39 40 41 41 42 42 42 42 42 43 42 41 41 40 39 38 36 34 32 31 31 31 30 30 30 29 29 29 29 30 30 30 31 31 32 32 32 32 32 32 32 32 32 32 32 32 34 35 35 36 37
40 40 39 39 39 39 38 38 38 38 38 38 38 38 38 38 38 38 38 38 39 39 39 38 38 38 38 38 38 39 39 39 40 40 41 41 42 42 42 42 42 42 42 42 41 40 39 38 37 35 33 31 30 30 29 29 29 29 29 28 28 28 29 29 30 30 31 31 31 32 32 32 32 32 32 32 31 31 31 32 33 34 35 36 37
41 41 41 41 41 40 40 39 39 39 39 39 39 39 39 39 40 40 40 40 40 40 40 40 40 39 39 40 40 40 40 40 41 41 41 41 42 42 41 42 42 42 41 41 40 39 38 36 35 32 30 29 29 28 28 27 27 27 27 27 28 28 28 29 29 30 30 31 31 31 32 32 32 32 31 31 31 31 31 32 33 34 34 35 36
43 42 42 42 42 41 41 41 40 40 40 40 40 40 40 40 40 41 41 41 41 41 41 41 41 41 41 41 41 41 41 41 41 41 41 41 41 41 41 41 41 41 41 40 39 38 36 34 32 30 28 28 27 26 26 26 26 26 26 27 27 27 28 29 30 30 30 31 31 31 31 32 31 31 31 31 31 31 32 32 33 34 35 35 36
43 43 42 42 42 42 42 42 41 41 41 41 41 40 40 40 41 41 41 41 41 42 42 41 41 41 41 41 41 41 41 41 41 41 41 41 41 40 40 40 41 41 40 39 37 36 34 32 30 28 27 26 26 25 25 25 25 26 26 26 27 27 28 29 30 30 30 31 31 31 31 31 30 30 30 30 30 31 32 32 33 34 34 34 35
43 43 42 43 43 43 43 42 42 42 41 41 41 41 41 41 41 41 41 41 42 42 42 42 42 42 41 41 41 41 41 41 41 41 41 41 40 40 40 40 41 40 39 37 36 35 33 30 28 27 26 25 25 25 25 25 25 25 26 26 27 27 28 29 30 30 30 31 31 31 31 30 30 29 29 30 30 30 31 32 32 33 33 33 34
42 42 42 42 42 43 43 42 42 42 42 42 42 42 42 42 42 42 42 42 42 42 42 42 42 42 42 42 42 42 42 41 41 41 41 40 40 40 40 41 41 40 38 36 35 33 31 29 27 26 25 24 24 24 24 25 25 25 26 26 27 27 28 29 29 29 30 30 31 31 30 30 30 29 29 29 30 30 30 30 31 31 32 33 33
42 42 42 42 42 42 42 42 42 42 42 42 42 42 43 43 43 43 43 43 43 43 43 42 42 43 43 43 42 42 41 41 41 41 40 40 40 40 40 40 40 38 37 35 33 32 29 27 26 25 24 24 24 24 25 25 26 26 26 27 27 28 28 29 29 29 29 30 30 30 30 30 29 29 29 29 29 29 29 30 30 31 31 32 33
42 42 42 42 42 41 41 41 41 41 42 42 42 43 43 43 43 43 43 43 43 43 43 43 43 43 43 42 42 41 41 41 41 40 40 40 40 40 40 40 39 37 36 34 32 30 28 26 25 24 24 24 24 25 25 25 26 26 27 27 27 28 28 28 29 29 29 29 29 30 29 29 29 28 28 28 28 28 29 29 30 30 31 32 32
42 42 41 41 41 41 40 40 41 41 41 42 42 43 43 43 44 44 44 44 44 44 43 43 43 43 42 42 41 41 41 41 40 40 40 40 40 40 40 39 38 36 34 33 31 29 27 26 25 24 24 24 25 25 25 26 26 26 27 27 27 28 28 28 28 28 29 29 29 29 29 28 28 28 27 27 27 28 28 29 30 30 30 31 30
40 40 40 40 40 40 40 40 40 41 42 42 43 43 43 44 44 44 44 44 44 44 44 44 43 43 42 42 42 41 41 40 40 39 40 40 40 40 39 38 36 35 33 32 30 27 26 25 24 24 25 25 25 25 25 26 26 27 27 27 27 28 28 28 28 28 28 28 28 28 28 28 27 27 26 26 27 27 28 29 29 29 29 29 29
39 38 38 38 39 39 39 39 40 41 42 42 43 44 44 44 44 44 45 45 45 44 44 44 44 43 43 42 42 42 41 40 40 39 40 40 40 40 39 37 35 34 32 30 28 27 26 25 24 24 25 25 25 25 25 26 26 27 27 27 27 27 27 28 28 28 28 27 28 28 28 27 27 26 26 26 27 27 28 28 28 28 28 28 28
37 37 38 38 38 38 39 39 40 41 42 43 43 44 44 45 45 45 45 45 45 45 45 45 44 44 43 43 43 42 41 41 40 40 40 40 40 40 38 36 34 33 31 29 27 26 25 25 24 25 25 25 25 25 26 26 26 27 27 27 27 27 27 27 27 27 27 27 27 28 27 27 26 26 26 26 27 27 28 28 27 27 27 27 26
37 37 37 38 38 39 39 40 41 42 43 43 44 44 45 45 45 45 46 46 46 46 46 46 45 45 44 44 43 43 42 42 41 41 41 40 40 39 37 34 33 32 30 28 26 25 25 25 25 25 25 25 25 25 26 26 27 27 27 27 27 27 27 27 27 27 27 27 27 27 27 26 26 26 26 26 26 27 27 27 27 26 26 25 25
37 37 37 38 39 39 40 41 42 42 43 44 44 45 46 46 46 47 47 47 47 47 47 46 46 45 45 44 44 43 43 43 42 41 41 40 39 37 35 33 32 30 28 27 26 25 25 25 25 25 25 25 26 26 26 26 27 27 27 27 27 27 27 27 26 26 26 26 27 27 26 26 25 26 26 26 26 26 27 27 26 25 25 24 24
37 37 38 38 39 40 41 41 42 43 44 44 45 46 47 47 48 48 48 48 48 48 47 47 47 46 46 45 45 44 44 43 42 41 40 39 37 35 33 32 31 29 27 26 26 25 25 25 25 25 26 26 26 26 27 27 27 27 27 27 27 27 27 27 26 26 26 26 27 27 26 25 25 25 26 25 25 26 26 26 25 25 24 24 23
37 37 38 39 39 40 41 42 42 43 44 45 46 47 47 48 49 49 49 49 49 49 49 48 48 47 47 46 46 45 44 43 42 40 39 37 36 34 32 31 30 28 26 26 25 25 25 25 25 25 25 26 26 26 27 27 27 27 27 27 27 27 27 27 26 26 26 26 26 26 25 24 25 25 25 25 25 25 25 25 25 24 24 23 23
37 37 38 38 39 40 41 42 43 44 45 46 47 48 48 49 49 50 50 51 51 51 50 50 49 49 48 48 47 46 44 42 41 39 37 36 34 33 32 30 29 27 26 26 25 25 25 25 25 25 25 26 26 26 27 27 27 27 27 27 27 27 27 27 26 26 25 25 25 25 25 24 24 25 25 25 24 24 24 24 24 23 23 23 23
37 37 38 39 40 41 42 43 44 45 46 47 48 49 49 50 51 52 52 53 53 53 52 52 51 50 49 48 47 45 43 41 39 38 36 35 33 32 31 29 28 26 26 25 25 25 25 25 25 25 25 26 26 26 27 27 27 27 27 27 27 27 26 26 26 26 25 25 25 25 24 24 24 25 25 24 24 23 23 23 23 23 22 22 22
37 37 38 39 40 41 42 43 45 46 47 48 49 50 51 52 53 53 53 54 53 53 52 51 50 49 48 46 45 43 41 40 38 37 35 33 32 31 29 28 26 25 25 25 24 24 24 24 24 25 25 25 26 26 26 26 26 26 26 26 26 26 26 26 26 25 25 25 25 24 24 23 24 24 24 23 23 23 23 23 23 22 22 21 21
37 37 38 39 40 42 43 44 45 46 48 49 50 51 52 52 53 53 53 52 52 51 50 48 47 46 44 43 42 40 39 37 36 35 33 32 30 29 28 26 25 25 24 24 24 23 23 23 24 24 25 25 26 26 26 26 26 26 26 26 26 26 26 26 25 25 24 24 24 24 23 23 23 23 23 23 22 22 22 22 22 22 21 21 20
37 38 39 40 41 42 43 45 46 47 48 49 50 51 51 51 51 51 50 49 49 48 47 45 44 43 41 40 38 37 35 34 33 32 31 30 29 27 26 25 24 24 23 23 23 23 23 23 23 24 24 25 25 25 25 25 25 25 25 25 25 26 25 25 25 24 24 23 24 23 23 23 22 22 22 22 22 21 21 21 21 21 20 20 19
38 39 40 41 42 43 44 45 46 47 47 48 48 48 48 48 48 47 46 46 45 44 42 41 40 39 37 36 35 33 32 31 31 30 28 27 26 25 24 23 23 23 22 22 22 22 22 22 23 23 23 24 24 24 24 24 25 25 25 25 25 25 25 25 24 24 23 23 23 23 22 22 22 22 21 21 21 21 21 21 20 20 19 19 18
Wind_Direction
281 281 282 282 282 283 285 286 288 290 291 292 293 294 294 295 295 296 296 297 298 298 298 298 298 297 297 296 296 295 295 295 294 294 293 293 293 292 292 292 292 291 291 291 291 290 290 289 289 289 288 287 287 286 286 285 285 284 284 283 282 282 281 280 279 279 278 277 277 276 276 275 274 274 273 272 271 271 270 269 268 268 267 266 265
280 281 281 282 282 284 285 287 289 290 291 292 292 293 294 294 295 296 297 297 298 298 298 298 298 297 297 297 296 296 295 295 295 294 294 293 293 293 292 292 292 292 292 292 291 291 291 290 290 289 289 288 288 287 287 286 286 285 285 284 284 283 282 282 281 281 280 279 278 277 277 276 275 274 274 273 272 271 271 270 269 268 267 266 265
280 281 281 282 283 284 286 288 289 290 291 291 292 293 294 295 296 297 297 298 298 298 298 298 298 298 297 297 296 296 296 295 295 294 294 294 294 293 293 293 293 293 293 292 292 292 291 291 290 290 290 289 289 288 288 287 287 286 286 285 285 284 283 283 282 281 281 280 279 279 278 277 276 275 274 274 273 272 271 270 269 268 267 266 265
280 281 282 282 283 285 286 288 289 289 290 291 292 293 294 295 296 297 297 298 298 298 298 298 298 298 297 297 297 296 296 296 295 295 295 295 294 294 294 294 294 293 293 293 292 292 291 291 291 291 290 290 289 289 288 288 288 287 287 286 285 285 284 283 283 282 282 281 280 280 279 278 277 276 275 275 274 272 271 270 269 268 267 266 265
280 281 281 282 283 284 286 287 288 289 290 291 292 293 294 295 296 296 297 297 298 298 298 298 298 298 298 297 297 297 296 296 296 296 295 295 295 295 295 294 294 294 293 293 293 292 292 291 291 291 291 290 290 290 289 289 288 288 287 287 286 285 285 284 283 282 282 281 281 280 279 278 278 277 276 276 275 274 272 271 270 269 268 267 266
279 280 281 282 283 284 285 286 287 288 289 290 291 292 294 295 296 296 297 297 298 298 299 299 299 298 298 298 297 297 296 296 296 296 296 295 295 295 295 295 294 294 294 294 293 293 292 292 292 291 291 291 291 291 290 290 289 289 288 288 287 286 285 285 284 283 282 282 281 281 280 279 278 277 277 276 275 274 273 272 271 270 268 267 266
279 280 280 281 282 283 284 286 287 288 289 290 291 292 294 295 296 296 297 298 298 298 299 299 299 298 298 298 297 297 296 296 296 296 296 296 296 295 295 295 295 295 294 294 294 293 293 293 292 292 292 292 292 292 291 291 290 290 289 288 288 287 286 285 284 283 282 282 281 281 280 279 278 278 277 276 275 274 273 272 271 270 269 268 267
278 279 280 280 281 283 284 285 286 287 288 290 291 292 294 295 295 296 297 297 298 298 298 299 299 298 298 297 297 296 296 296 296 296 296 296 296 296 296 296 295 295 295 294 294 294 293 293 293 293 293 293 293 292 292 292 291 290 290 289 288 287 286 285 284 284 283 282 282 281 280 280 279 278 278 277 276 274 273 273 272 271 270 269 268
277 278 279 280 281 282 283 285 286 287 288 290 291 292 293 294 295 296 296 297 297 298 298 299 298 298 298 297 297 296 296 296 296 296 296 296 296 296 296 296 296 295 295 295 295 294 294 294 294 294 294 294 294 293 293 292 292 291 291 290 289 288 287 286 285 285 284 283 283 282 281 280 280 279 278 277 276 275 274 273 272 271 270 269 268
277 277 278 279 281 282 283 284 285 287 288 289 291 292 293 294 295 295 296 296 297 297 298 298 298 298 297 297 296 296 296 296 296 297 297 297 297 297 297 297 296 296 296 296 296 296 296 295 295 296 296 296 295 295 294 294 293 292 291 290 289 289 288 287 286 285 285 284 283 282 282 281 280 280 279 278 277 276 276 275 274 273 272 271 269
276 277 278 279 280 281 282 284 285 286 288 289 290 291 292 293 294 294 295 296 296 297 298 298 298 297 297 296 296 296 296 296 297 297 297 297 297 297 297 297 297 296 296 296 296 296 297 296 296 296 297 296 296 296 295 295 294 293 292 291 290 289 288 287 286 286 285 284 283 282 282 281 281 280 279 279 278 277 277 276 275 274 273 272 270
275 276 277 278 279 280 282 283 284 286 287 288 290 291 292 292 293 294 295 295 296 297 297 297 297 297 296 296 296 296 296 296 297 297 297 297 298 298 297 297 297 297 297 297 297 297 297 297 297 297 297 297 297 297 296 296 295 294 293 292 291 290 289 288 287 286 285 284 283 282 281 281 281 280 279 279 279 278 277 277 276 275 274 273 271
275 276 277 278 278 280 281 282 284 285 287 288 289 290 291 291 292 293 294 295 296 296 297 297 297 297 296 296 296 296 296 297 297 297 297 298 298 298 298 298 297 297 298 298 298 298 298 298 299 299 299 299 299 298 298 297 297 296 295 293 292 291 290 289 288 287 286 285 283 282 281 281 280 279 279 280 279 279 278 277 276 275 275 274 273
275 276 277 277 278 279 281 282 283 285 286 287 288 289 290 291 292 293 293 294 295 296 296 297 297 297 297 296 296 297 297 297 297 297 298 298 298 298 298 298 298 298 298 298 299 299 299 299 300 300 300 300 300 300 299 299 298 297 295 294 293 292 291 290 289 288 287 286 284 283 282 281 279 279 280 281 280 280 279 279 278 277 276 275 274
275 276 277 277 278 279 280 281 283 284 285 286 288 288 289 290 291 292 293 294 295 296 296 297 297 297 297 297 297 297 297 297 297 297 298 298 298 298 298 298 299 299 299 299 299 300 300 300 300 301 301 301 301 301 300 300 299 297 296 295 294 293 291 290 290 289 288 286 285 284 282 281 280 280 280 280 280 279 279 279 278 277 276 275 274
276 276 276 277 278 279 280 281 282 284 285 286 287 288 289 290 291 292 293 294 295 296 296 297 297 297 297 297 297 297 297 297 297 297 298 298 298 299 299 299 299 299 300 300 300 300 301 301 301 301 301 302 302 302 301 300 299 297 296 295 294 293 292 290 289 288 288 287 285 284 282 281 280 280 280 279 279 279 279 279 278 278 276 275 274
276 276 276 277 278 279 280 281 282 283 284 286 287 287 288 289 290 291 292 294 295 296 297 297 297 297 297 297 297 298 298 298 297 298 298 298 299 299 300 300 300 300 300 301 301 301 301 301 301 302 302 303 303 303 302 300 299 297 296 295 294 293 293 292 291 289 288 287 286 285 283 282 282 281 281 280 280 280 280 280 279 278 276 274 273
276 276 277 278 278 279 280 281 282 283 284 285 286 287 288 289 290 291 292 294 295 296 297 297 297 297 297 297 297 298 298 298 298 298 299 299 299 300 300 301 301 301 301 301 302 302 302 302 302 303 303 304 304 304 302 300 299 298 297 296 295 293 293 293 292 291 290 288 287 286 285 284 283 282 282 281 280 280 280 279 279 278 276 274 273
277 277 278 279 279 280 281 282 283 284 285 285 286 286 287 288 290 291 292 294 295 296 297 297 297 298 297 297 297 298 298 298 298 299 299 299 300 300 301 301 301 301 302 302 302 303 303 303 304 304 304 304 304 304 302 300 299 298 297 296 295 294 294 294 293 293 292 290 289 288 287 285 284 282 281 279 279 279 279 279 277 276 275 274 273
278 279 279 280 280 281 281 282 283 284 284 285 285 286 287 288 289 291 292 293 295 296 297 297 298 298 298 298 298 298 298 299 299 299 299 300 300 301 301 301 301 301 302 302 303 303 304 304 305 305 305 305 305 303 302 300 299 298 298 297 296 296 296 295 294 294 293 292 291 289 288 287 285 283 281 280 279 279 279 278 276 274 273 273 273
279 280 280 280 281 282 282 283 283 284 284 284 285 286 287 288 289 290 292 293 295 296 297 298 299 299 298 298 298 299 299 299 299 300 300 300 301 301 301 302 302 302 302 303 303 304 305 305 305 305 306 306 305 303 302 301 300 299 299 298 297 297 297 296 296 295 294 293 291 290 289 288 286 284 282 281 281 280 279 278 276 275 274 273 273
280 280 281 281 282 282 283 283 283 283 284 284 285 286 287 287 288 290 291 293 295 296 297 298 299 300 299 299 300 300 299 300 300 300 301 301 302 302 302 302 302 302 303 303 304 304 305 305 305 305 305 305 304 303 302 301 301 300 299 298 297 297 297 296 296 295 293 292 292 290 289 288 286 285 283 282 282 281 280 279 278 277 276 275 274
280 280 281 281 282 282 282 283 283 283 284 284 285 285 286 287 288 290 291 292 294 295 296 297 299 300 300 301 301 301 301 301 301 301 302 302 302 302 302 303 303 303 303 303 304 304 305 305 305 305 305 305 304 304 303 302 301 300 300 299 298 298 297 296 295 294 294 293 292 291 290 289 288 286 285 283 282 282 281 281 280 279 279 277 277
280 281 281 281 281 282 282 283 283 283 283 284 284 285 286 287 288 289 290 291 293 294 295 297 298 299 300 301 302 302 302 302 302 302 303 303 303 303 303 304 303 303 303 304 304 304 305 305 305 305 306 305 305 304 303 302 302 301 300 300 300 299 298 297 296 296 295 295 294 293 292 291 290 288 286 285 284 283 282 282 281 280 280 279 278
280 280 280 280 280 281 282 282 282 283 283 283 284 285 285 286 287 288 289 290 292 294 295 296 298 299 299 300 302 302 303 303 304 304 304 304 304 304 304 304 304 304 304 304 305 305 305 305 306 306 306 305 305 304 303 303 303 302 301 301 301 301 299 299 298 297 297 296 295 294 293 292 290 289 288 286 285 284 283 282 281 281 280 279 279
278 279 279 279 280 280 281 282 282 282 283 283 284 284 285 286 286 287 288 290 291 293 294 295 297 297 298 300 301 302 303 303 304 304 305 305 305 305 306 306 305 305 305 305 305 305 305 305 306 306 306 306 305 304 303 303 303 302 302 303 302 302 301 300 299 298 297 297 296 295 294 293 292 291 289 288 287 285 284 283 282 281 280 280 280
278 279 279 279 279 280 281 281 281 282 282 282 283 284 285 285 286 286 287 289 290 292 293 294 295 296 297 298 300 301 301 302 304 304 304 305 305 307 307 307 307 306 306 305 306 305 305 306 306 306 306 306 305 305 304 304 303 303 303 304 303 303 302 301 300 299 299 299 298 297 297 296 295 293 292 291 289 287 285 284 283 281 281 280 280
278 279 279 279 279 279 280 280 281 281 281 282 283 284 284 285 285 286 287 288 290 291 292 293 294 295 296 297 298 299 300 301 302 303 304 305 306 307 308 309 308 307 306 306 306 306 306 306 306 306 306 305 305 305 305 304 304 304 305 305 305 305 305 304 303 302 302 302 301 300 299 298 296 295 294 292 290 289 288 286 284 283 283 282 281
278 279 279 278 278 278 279 279 280 281 281 282 282 283 284 284 285 285 286 287 288 290 291 292 293 294 295 296 297 298 299 300 301 302 303 305 306 307 308 309 308 307 307 307 307 306 306 306 306 306 306 305 304 305 305 305 306 306 307 307 307 308 308 307 307 306 305 304 303 302 301 300 298 297 295 294 293 292 290 288 287 286 286 284 283
279 279 279 278 277 277 277 278 279 280 281 282 282 283 284 283 284 285 286 286 287 288 289 291 292 293 294 295 296 296 297 299 300 301 303 305 306 307 308 308 308 308 308 308 308 307 307 307 307 306 305 304 304 305 305 306 307 308 309 309 310 310 310 310 309 309 307 306 305 304 303 302 301 299 297 295 294 293 291 290 289 289 288 287 286
278 279 278 278 277 276 276 277 278 279 280 281 282 282 283 283 283 284 284 285 286 287 288 289 290 291 292 294 295 295 296 298 299 301 302 303 305 306 307 307 308 309 309 309 308 307 307 307 306 304 303 303 304 305 305 306 307 308 309 310 311 311 311 311 311 311 310 309 308 307 306 304 303 301 299 297 295 294 293 293 292 291 290 289 288
278 278 278 277 277 276 276 276 277 277 278 279 280 281 282 283 284 284 284 285 286 287 288 288 289 290 291 292 294 295 296 297 298 300 301 302 304 306 306 307 309 310 309 308 307 307 307 306 304 303 302 303 304 305 306 306 307 308 309 310 311 312 312 313 313 312 312 312 311 310 308 306 304 302 300 298 297 296 296 296 295 295 294 292 291
278 278 277 277 276 276 275 275 276 276 277 278 279 280 282 283 284 285 285 285 286 287 287 288 289 290 290 291 293 294 295 296 297 299 300 302 304 304 305 307 309 309 308 307 306 306 306 304 302 301 302 303 303 305 306 306 307 308 309 309 311 312 313 314 314 314 314 314 314 312 310 308 306 304 302 300 298 298 297 297 297 297 296 295 293
278 278 277 276 276 275 275 275 275 276 276 277 278 280 281 282 284 285 286 286 286 287 287 288 288 289 290 291 292 293 294 295 297 298 299 301 302 303 305 307 308 308 306 305 305 305 304 302 300 300 301 301 303 304 305 306 307 308 308 309 311 312 313 314 315 316 316 316 315 315 313 312 309 307 304 302 301 300 299 299 299 298 298 297 295
278 278 277 276 276 275 274 274 274 275 276 276 278 279 281 282 283 284 285 286 286 287 287 288 288 289 290 291 291 292 293 294 295 297 299 300 301 302 304 306 307 306 305 304 304 303 301 299 298 299 300 300 302 303 305 306 307 308 308 310 311 312 313 315 316 317 318 318 317 317 315 313 312 310 307 305 304 303 302 301 301 300 300 299 297
278 278 277 276 276 275 274 274 275 275 276 277 278 279 280 281 283 284 284 285 285 286 287 288 288 289 289 290 291 291 292 293 294 296 297 299 300 302 303 305 305 304 302 302 302 301 298 297 297 297 298 299 301 302 304 305 307 308 309 310 311 312 314 315 317 318 319 319 319 318 316 314 313 312 310 308 307 306 305 304 304 303 303 301 299
278 278 277 276 275 274 274 275 275 275 276 277 277 278 280 281 282 283 284 284 285 285 286 287 288 289 289 290 290 291 291 292 293 294 295 297 299 301 302 303 303 302 300 300 300 298 295 294 295 296 297 298 299 301 303 305 306 308 309 310 311 312 314 315 317 318 319 320 321 320 318 316 314 313 312 310 309 309 309 308 307 306 306 304 302
278 278 276 275 274 274 274 275 275 275 276 277 277 278 280 281 282 283 283 284 284 285 285 286 287 288 289 289 290 290 291 291 292 293 294 295 298 299 300 302 301 299 298 298 297 294 292 292 293 294 296 297 299 300 302 304 306 308 309 311 312 312 314 315 317 318 319 321 322 322 321 319 318 316 314 312 311 311 311 311 310 309 308 307 305
278 278 276 275 274 274 275 275 275 275 276 277 278 279 280 281 282 283 283 284 284 284 285 285 286 287 288 288 289 290 290 290 291 292 293 294 296 297 299 300 298 297 296 295 293 291 290 290 291 293 295 296 298 299 301 303 305 307 309 310 311 312 314 315 317 318 319 320 322 323 323 322 321 319 317 315 314 314 313 313 312 311 310 309 308
278 277 276 275 275 275 275 276 276 276 277 277 278 280 281 281 282 282 283 283 284 284 285 285 286 286 287 287 288 288 289 289 290 291 292 293 295 297 298 297 296 294 294 292 289 287 287 288 289 291 293 295 297 298 301 303 305 307 308 309 310 311 313 314 316 317 318 319 321 323 323 323 323 322 320 319 318 317 316 316 315 313 312 311 310
278 278 277 276 276 276 277 277 277 277 278 279 280 280 281 281 282 282 283 283 284 284 285 285 285 286 286 286 286 286 287 288 289 289 291 292 294 295 296 295 293 293 291 288 285 284 284 286 288 290 292 294 296 298 300 302 304 305 306 308 309 310 312 313 315 315 316 318 320 322 323 323 324 323 322 321 321 320 320 319 317 316 315 314 313
279 279 278 278 277 277 277 277 278 278 279 279 280 281 281 281 282 282 283 283 283 284 284 284 285 285 285 285 285 285 286 286 287 288 289 290 291 292 293 292 291 291 288 284 282 282 283 284 287 289 291 293 295 297 299 301 303 304 305 307 308 309 310 312 313 314 315 316 318 320 321 323 324 324 323 322 323 323 322 322 320 318 318 318 317
280 280 279 279 278 278 279 279 279 280 280 280 281 281 281 282 282 282 283 283 283 283 283 284 284 284 284 284 284 284 284 285 285 286 287 288 289 290 290 289 289 288 284 280 279 280 282 284 286 288 290 292 294 296 298 300 301 303 304 305 307 308 309 310 311 312 314 315 316 318 319 321 324 324 323 323 324 324 324 324 323 322 321 321 320
281 280 280 280 280 280 280 281 281 281 281 281 282 282 282 282 282 283 283 283 283 283 283 283 283 283 283 283 282 282 282 283 283 284 285 285 286 286 287 287 287 285 280 277 277 278 281 283 285 287 289 291 293 295 297 298 300 301 302 304 305 306 307 308 309 310 312 314 315 316 317 319 323 324 324 324 325 325 325 325 325 325 324 324 323
281 281 281 281 281 282 282 282 282 282 282 282 283 283 283 283 283 283 283 282 282 282 282 282 282 281 281 281 281 281 281 281 281 282 282 282 283 283 284 284 284 280 276 275 276 277 280 282 285 287 289 291 293 294 296 297 299 300 301 302 304 305 305 306 306 308 310 312 314 315 315 317 321 323 324 325 325 325 326 327 327 327 327 326 326
282 283 283 283 283 283 283 283 283 283 284 284 284 284 284 283 283 283 282 282 282 281 281 281 280 280 279 279 279 279 279 279 279 278 278 279 279 280 281 281 279 276 273 273 275 276 279 281 284 287 289 291 293 294 296 297 298 299 300 301 302 303 303 304 305 306 308 310 312 313 314 315 318 321 323 325 325 326 327 328 329 328 328 328 328
284 284 284 284 284 285 285 285 285 285 285 285 285 285 284 284 284 283 283 282 281 281 280 280 279 278 278 277 277 277 276 276 275 275 275 276 276 277 277 277 275 272 271 272 274 275 278 280 283 286 289 292 293 295 296 297 298 299 299 300 301 302 303 303 303 304 306 307 310 311 312 314 316 319 321 323 325 326 327 328 330 330 330 330 330
285 285 286 286 287 287 287 288 287 287 287 286 286 286 286 285 285 284 284 283 282 281 280 279 278 277 276 275 275 274 273 273 272 272 272 272 272 273 273 272 269 268 269 271 273 275 277 280 283 287 289 292 294 295 296 297 298 298 299 300 301 301 302 302 303 303 304 306 308 310 311 312 315 317 319 320 323 325 327 328 330 331 331 331 332
287 287 288 289 289 289 290 289 289 289 289 288 288 288 288 287 287 286 285 284 282 281 280 278 277 276 275 273 272 271 270 269 269 268 268 268 269 269 268 267 265 266 268 270 272 274 277 280 284 287 290 292 294 295 296 297 298 298 299 300 300 301 301 301 302 303 303 304 306 308 309 311 313 315 316 318 320 323 325 327 329 331 332 332 332
289 289 290 291 291 291 291 291 291 291 291 291 291 290 290 289 288 287 286 284 282 281 279 277 275 274 272 271 269 268 267 266 265 264 264 264 264 264 263 262 262 264 266 269 271 274 277 281 284 288 290 292 294 295 296 297 298 298 299 299 300 301 301 301 301 302 303 304 305 306 307 309 311 312 314 316 318 320 322 325 328 330 332 332 333
290 291 292 292 292 292 293 293 293 293 293 293 293 292 291 291 290 288 286 284 282 280 278 276 274 272 270 268 266 264 263 261 261 260 260 260 260 259 258 257 259 262 265 267 271 274 278 282 285 288 291 293 294 296 297 298 298 299 299 300 300 301 301 301 302 302 302 303 304 304 305 308 310 311 312 314 316 318 320 322 324 327 330 332 333